Weather in Denizli

Turkey     37°46′47″N   29°05′48″E
В апреле 2022 года жителям России запретили посещать сайт meteo.paraplan.net по решению Генеральной прокуратуры. Аудитория сайта уменьшилась в 10 раз. Владельцы сайта не видят смысла в поддержке погодного сервера в таких условиях. Сайт будет закрыт в октябре.
temp.,
°C
wind,
m/s
gust,
m/s
humid.,
%
clouds,
%
prec.,
mm/h
press.,
hPa
HPBL,
m
4 october, tue
tue400:00+14n124136 0.0 101011
03:00+12nnw12450 0.0 101111
06:00+11n12555 0.0 101214
09:00+15nne22425 0.0 1013301
12:00+19n32335 0.0 1013941
15:00+22n332734 0.0 10131679
18:00+19n343567 0.0 1013313
21:00+13ne22550 0.0 101721
5 october, wed
wed500:00+10nne12760 0.0 101922
03:00+9nne22810 0.0 101920
06:00+8n12860 0.0 102020
09:00+11nne22691 0.0 1021305
12:00+16nne23500 0.0 1020756
15:00+20n33320 0.0 10191520
18:00+19n33290 0.0 1017206
21:00+14nw23360 0.0 101929
6 october, thu
thu600:00+11nnw22560 0.0 102121
03:00+9n12700 0.0 102116
06:00+7nnw12780 0.0 102117
09:00+11nne22650 0.0 1021295
12:00+15nne23503 0.0 1019648
15:00+19n223933 0.0 1017872
18:00+18nw23392 0.0 1015196
21:00+13n225574 0.0 101720
7 october, fri
fri700:00+11nnw22660 0.0 101825
03:00+10nnw1277100 0.0 101822
06:00+8n22874 0.0 101828
09:00+11n2377100 0.0 1018276
12:00+15nne23533 0.0 1017878
15:00+19n454030 0.0 10141672
18:00+16nne3550100 0.0 10151237
21:00+13n236143 0.0 1017147
8 october, sat
sat800:00+11nnw127436 0.0 101721
03:00+10nne117719 0.0 101618
06:00+11ne227794 0.0 1016132
09:00+12nne237270 0.0 1017506
12:00+15nne235620 0.0 1017970
15:00+16nnw345458 0.1 1016833
18:00+15nw135636 0.0 1016490
21:00+11nnw12713 0.0 101718